Tracking 20628 objects as of 7-Apr-2020
HD Live streaming from Space Station
objects crossing your sky now

SL-8 R/B

Track SL-8 R/B now!
10-day predictions


NORAD ID: 7686
Int'l Code: 1975-016J
Perigee: 1,463.6 km
Apogee: 1,726.6 km
Inclination: 74.0 °
Period: 117.9 minutes
Semi major axis: 7966 km
RCS: 6.1934 m2 (large)
Launch date: February 28, 1975
Source: Commonwealth of Independent States (former USSR) (CIS)
Launch site: PLESETSK MISSILE AND SPACE COMPLEX (PKMTR)

Note: This is a ROCKET BODY
aabbcc
Your satellite tracking list
Your tracking list is empty




NASA's NSSDC Master Catalog

Two Line Element Set (TLE):
1  7686U 75016J   20098.55634921 +.00000094 +00000-0 +99927-3 0  9992
2  7686 073.9988 138.0780 0165036 258.0616 256.8083 12.21054882010162
Source of the keplerian elements: AFSPC